Regional Weather Roundup
Issued by NWS

Home | Current Version | Previous Version | Graphics & Text | Print | Product List | Glossary On
Versions: 1 2 3 4 5 6 7 8 9 10 11 12 13 14 15 16 17 18 19 20 21 22 23 24 25 26 27 28 29 30 31 32 33 34 35 36 37 38 39 40 41 42 43 44 45 46 47 48 49 50
000
ASUS45 KTFX 152019
RWRMT
MONTANA HOURLY WEATHER ROUNDUP
NATIONAL WEATHER SERVICE GREAT FALLS MT
219 PM MDT TUE APR 15 2014

NOTE: "FAIR" INDICATES FEW OR NO CLOUDS BELOW 12000 FEET WITH NO
SIGNIFICANT WEATHER AND/OR OBSTRUCTIONS TO VISIBILITY.

* THESE STATIONS ARE NOT UNDER NWS QUALITY CONTROL. THEY DO NOT
   REPORT WEATHER SUCH AS PRECIPITATION OR FOG.

MTZ001>007-043-152100-
WEST OF THE DIVIDE
CITY           SKY/WX    TMP DP  RH WIND       PRES   REMARKS
KALISPELL      CLOUDY    48  28  46 W13G23    29.78R
MISSOULA       CLOUDY    48  28  46 W14       29.86F
MULLAN PASS    FOG       28  28 100 NW10G25   29.86R WCI  19
* ESSEX        N/A       40  34  79 NE2        N/A
* LINCOLN      N/A       44  26  49 SW8G23     N/A
* LOOKOUT PASS N/A       33  31  92 NE11G17    N/A   WCI  24
* POLSON       N/A       44  31  60 W3G12      N/A
* SEELEY LAKE  N/A       38  34  86 W7G12      N/A   WCI  33
* THOMP F APT  CLOUDY    45  13  27 S10G19     N/A
$$

MTZ008-052>055-152100-
SOUTHWEST MONTANA
CITY           SKY/WX    TMP DP  RH WIND       PRES   REMARKS
BOZEMAN        LGT RAIN  43  34  71 N20G26    29.73R
DILLON         CLOUDY    48  23  37 W29G36    29.74R
W YELLOWSTONE  N/A       41  18  39 SW5G12     N/A
* BOULDER HILL N/A       37  25  62 N8         N/A   WCI  31
* MONIDA PASS  N/A       46  15  29 W16        N/A
* RAYNOLDS PAS N/A       39  19  45 SE11G19    N/A   WCI  32
* WHITEHALL    N/A       49  27  43 NW15G27    N/A
* WISE RIVER   N/A       34  23  64 NW16G24    N/A   WCI  24
$$

MTZ009>010-012-014-046-048-049-054-152100-
EAST SLOPES AND CENTRAL MONTANA
CITY           SKY/WX    TMP DP  RH WIND       PRES   REMARKS
CUT BANK       CLOUDY    48  23  37 NW24G33   29.69R
GREAT FALLS    LGT RAIN  39  36  89 NW18      29.70R WCI  30
HELENA         CLOUDY    52  27  38 W17G35    29.73F
MALMSTROM AFB  CLOUDY    48  32  54 N5        29.67S
* CONRAD       CLOUDY    52  27  38 SW17G28    N/A
* DEARBORN     N/A       50  27  41 SW8G21     N/A
* EAST GLACIER N/A       40  26  57 W12G21     N/A   WCI  33
* MONARCH      N/A       35  27  73 NW20G29    N/A   WCI  24
* PENDROY      N/A       45  26  47 NW17G23    N/A
* ROGERS PASS  N/A       36  29  76 SE12G19    N/A   WCI  28
* SAINT MARY   N/A       42  24  49 S8G20      N/A
* SWEET GRASS  N/A       52  14  22 W23G31     N/A
* WHITE SULPH  N/A       44  28  53 W8G17      N/A
$$

MTZ011-013-016-021-035-040-045-047-050-051-152100-
NORTH CENTRAL MONTANA
CITY           SKY/WX    TMP DP  RH WIND       PRES   REMARKS
HAVRE          CLOUDY    61  18  19 NW20G29   29.56F
LEWISTOWN      CLOUDY    50  27  41 NW24G32   29.64F
* FORT BENTON  CLOUDY    55  23  29 W26G31    29.64S
* CHESTER      N/A       55  17  22 NW20G32    N/A
* DENTON       N/A       51  22  32 W32G39     N/A
* GEYSER       N/A       40  36  86 W16G26     N/A   WCI  32
* JUDITH GAP   N/A       49  19  30 W19G28     N/A
* LOMA         N/A       58  21  24 SW21G37    N/A
$$

MTZ017>020-022>027-061-062-152100-
NORTHEAST MONTANA
CITY           SKY/WX    TMP DP  RH WIND       PRES   REMARKS
GLASGOW        CLOUDY    57  19  23 VRB5      29.53F
GLENDIVE       PTCLDY    57  25  29 N5        29.56F
JORDAN         PTSUNNY   63  18  17 NW14G23   29.53F
SIDNEY         PTSUNNY   54  21  27 E12       29.59F
WOLF POINT     CLOUDY    55  19  24 W7        29.56F
* BEAVER HILL  N/A       57  18  22 S6G12      N/A
* CIRCLE       N/A       56  25  30 W11        N/A
* LINDSAY DVD  N/A       55  17  22 W16G24     N/A
* NAVAJO       N/A       43  17  35 SE9G15     N/A
* SACO         N/A       59  19  21 W6G14      N/A
$$

MTZ028>042-056>058-152100-
SOUTHCENTRAL AND SOUTHEAST MONTANA
CITY           SKY/WX    TMP DP  RH WIND       PRES   REMARKS
BAKER          PTCLDY    63  18  17 NW20      29.57F
BILLINGS       LGT RAIN  54  30  40 NW10G29   29.65F
LIVINGSTON     CLOUDY    46  34  63 SW20G25   29.69F
MILES CITY     PTSUNNY   63  19  18 W15G36    29.55F
* LAUREL APT   CLOUDY    55  25  31 N/A        N/A
* ROUNDUP APT  CLOUDY    57  19  23 SW17G30    N/A
* HYSHAM       N/A       58  22  25 W17G27     N/A
* LAME DEER    N/A       58  20  23 W16G26     N/A
* REED POINT   N/A       54  30  40 W26G38     N/A
* ROSCOE HILL  N/A       47  14  26 SW14G29    N/A
$$

REGIONAL REPORTS...DAKOTAS
CITY           SKY/WX    TMP DP  RH WIND       PRES   REMARKS
WILLISTON      CLOUDY    45  32  60 S21       29.64F
DICKINSON      CLOUDY    50  19  29 S17G28    29.61F
CROSBY         SUNNY     37  18  46 SE23      29.69F WCI  26
TIOGA          SUNNY     36  16  44 SE24G32   29.71F WCI  24
WATFORD CITY   SUNNY     46  19  34 SE16G23   29.61F
BISMARCK       CLOUDY    43  18  37 SE23G35   29.78F
GRAND FORKS    PTSUNNY   28  10  47 S8        30.00F WCI  20
FARGO          PTCLDY    30  10  43 SE10G16   30.03F WCI  21
BUFFALO SD     PTCLDY    64  16  15 W21G30    29.51F
RAPID CITY     PTCLDY    64  19  18 CALM      29.62F
$$

REGIONAL REPORTS...WYOMING/IDAHO/WASHINGTON
CITY           SKY/WX    TMP DP  RH WIND       PRES   REMARKS
GILLETTE       PTCLDY    61  21  21 VRB6G20   29.63F
SHERIDAN       CLOUDY    61  25  25 NW15      29.63F
CODY           CLOUDY    54  27  35 E15       29.66F
YELLOWSTONE LA CLOUDY    36  18  48 SW9G26    29.81F WCI  29
SALMON         CLOUDY    46  27  48 E6        29.83S
MULLAN PASS    FOG       28  28 100 NW10G25   29.86S WCI  19
SAND POINT     PTSUNNY   54  28  37 W10G18    29.86S
SPOKANE        PTSUNNY   55  21  27 NW14      29.90S
$$

REGIONAL REPORTS...ALBERTA
CITY           SKY/WX    TMP DP  RH WIND       PRES   REMARKS
CALGARY        CLOUDY    45  19  35 N24G36    29.75R
LETHBRIDGE     CLOUDY    54  18  24 NW15G26   29.66S
MEDICINE HAT   PTCLDY    57  16  20 N14G24    29.61R
EDMONTON       CLOUDY    43  25  49 N9        29.79S
WATERTON GATE  N/A       39  32  76 NE12G17    N/A   WCI  32
CARDSTON       N/A       46  28  50 W12G17     N/A
$$

REGIONAL REPORTS...SASKATCHEWAN
CITY           SKY/WX    TMP DP  RH WIND       PRES   REMARKS
SWIFT CURRENT  SUNNY     48  19  32 E13       29.54F
MOOSE JAW      CLOUDY    41  18  39 E18G24    29.66S
REGINA         CLOUDY    37  19  48 SE24G33   29.71S WCI  26
VAL MARIE      N/A       57  19  23 NW12       N/A
ASSINIBOIA     N/A       41  18  39 SE13G18    N/A

$$




USA.gov is the U.S. government's official web portal to all federal, state and local government web resources and services.